• In Belarus
  • List of Countries
  • For 7 days
  • Water Temperature
  • Satellite Maps
  • Weather Map
  • Weather Widgets
  • user-avatar
    Login

    Hourly Weather Dangriga

    Today, 16 December, Sunday

    Time Temperature Precipitation Wind Pressure Humidity
    00:00 +21°C° 0 mm 5 mps 766 mmHg 82%
    01:00 +21°C° 0 mm 5 mps 766 mmHg 82%
    02:00 +20°C° 0 mm 5 mps 766 mmHg 82%
    03:00 +20°C° 0 mm 6 mps 766 mmHg 82%
    04:00 +20°C° 0 mm 6 mps 766 mmHg 81%
    05:00 +20°C° 0 mm 5 mps 766 mmHg 81%
    06:00 +20°C° 0 mm 5 mps 766 mmHg 80%
    07:00 +21°C° 0 mm 5 mps 766 mmHg 77%
    08:00 +21°C° 0 mm 5 mps 767 mmHg 75%
    09:00 +22°C° 0 mm 5 mps 767 mmHg 72%
    10:00 +23°C° 0 mm 5 mps 767 mmHg 67%
    11:00 +25°C° 0 mm 5 mps 767 mmHg 62%
    12:00 +26°C° 0 mm 5 mps 766 mmHg 56%
    13:00 +26°C° 0 mm 4 mps 766 mmHg 58%
    14:00 +26°C° 0 mm 4 mps 765 mmHg 60%
    15:00 +26°C° 0 mm 4 mps 765 mmHg 62%
    16:00 +25°C° 0 mm 4 mps 765 mmHg 65%
    17:00 +24°C° 0 mm 3 mps 765 mmHg 69%
    18:00 +22°C° 0 mm 3 mps 765 mmHg 72%
    19:00 +22°C° 0 mm 3 mps 765 mmHg 74%
    20:00 +22°C° 0 mm 3 mps 765 mmHg 75%
    21:00 +22°C° 0 mm 3 mps 766 mmHg 76%
    22:00 +22°C° 0 mm 3 mps 765 mmHg 77%
    23:00 +21°C° 0 mm 3 mps 765 mmHg 78%

    Tomorrow, 17 December, Monday

    Time Temperature Precipitation Wind Pressure Humidity
    00:00 +21°C° 0 mm 3 mps 765 mmHg 79%
    01:00 +21°C° 0 mm 4 mps 765 mmHg 81%
    02:00 +21°C° 0 mm 4 mps 764 mmHg 82%
    03:00 +20°C° 0 mm 5 mps 764 mmHg 83%
    04:00 +20°C° 0 mm 5 mps 764 mmHg 83%
    05:00 +20°C° 0 mm 5 mps 764 mmHg 82%
    06:00 +20°C° 0 mm 5 mps 764 mmHg 82%
    07:00 +21°C° 0 mm 5 mps 765 mmHg 78%
    08:00 +22°C° 0 mm 5 mps 765 mmHg 74%
    09:00 +23°C° 0 mm 5 mps 766 mmHg 71%
    10:00 +25°C° 0 mm 5 mps 766 mmHg 66%
    11:00 +26°C° 0 mm 4 mps 765 mmHg 62%
    12:00 +27°C° 0 mm 4 mps 765 mmHg 57%
    13:00 +27°C° 0 mm 3 mps 764 mmHg 60%
    14:00 +27°C° 0 mm 3 mps 763 mmHg 63%
    15:00 +26°C° 0 mm 2 mps 762 mmHg 65%
    16:00 +26°C° 0 mm 2 mps 763 mmHg 69%
    17:00 +25°C° 0 mm 2 mps 763 mmHg 72%
    18:00 +24°C° 0 mm 2 mps 763 mmHg 76%
    19:00 +24°C° 0 mm 2 mps 763 mmHg 76%
    20:00 +24°C° 0 mm 2 mps 763 mmHg 77%
    21:00 +24°C° 0 mm 2 mps 764 mmHg 78%
    22:00 +24°C° 0 mm 2 mps 764 mmHg 78%
    23:00 +23°C° 0 mm 2 mps 763 mmHg 79%

    Day after tomorrow, 18 December, Tuesday

    Time Temperature Precipitation Wind Pressure Humidity
    00:00 +23°C° 0 mm 2 mps 763 mmHg 80%
    01:00 +22°C° 0 mm 3 mps 763 mmHg 81%
    02:00 +22°C° 0 mm 3 mps 762 mmHg 82%
    03:00 +22°C° 0 mm 3 mps 762 mmHg 83%
    04:00 +22°C° 0 mm 3 mps 762 mmHg 83%
    05:00 +22°C° 0 mm 3 mps 762 mmHg 83%
    06:00 +21°C° 0 mm 3 mps 762 mmHg 83%
    07:00 +24°C° 0 mm 3 mps 762 mmHg 76%
    08:00 +26°C° 0 mm 3 mps 763 mmHg 69%
    09:00 +28°C° 0 mm 3 mps 763 mmHg 61%
    10:00 +28°C° 0 mm 3 mps 762 mmHg 60%
    11:00 +29°C° 0 mm 2 mps 762 mmHg 60%
    12:00 +30°C° 0 mm 2 mps 761 mmHg 59%
    13:00 +29°C° 0 mm 3 mps 761 mmHg 63%
    14:00 +28°C° 0 mm 3 mps 760 mmHg 67%
    15:00 +27°C° 0 mm 3 mps 759 mmHg 72%
    16:00 +26°C° 0 mm 3 mps 759 mmHg 76%
    17:00 +25°C° 0 mm 3 mps 760 mmHg 80%
    18:00 +24°C° 0 mm 3 mps 760 mmHg 84%
    19:00 +24°C° 0 mm 2 mps 760 mmHg 85%
    20:00 +24°C° 0 mm 2 mps 761 mmHg 86%
    21:00 +23°C° 0 mm 2 mps 761 mmHg 87%
    22:00 +23°C° 0 mm 2 mps 761 mmHg 87%
    23:00 +23°C° 0 mm 1 mps 760 mmHg 88%

    19 December, Wednesday

    Time Temperature Precipitation Wind Pressure Humidity
    00:00 +23°C° 0 mm 1 mps 760 mmHg 88%
    01:00 +23°C° 0 mm 1 mps 760 mmHg 89%
    02:00 +23°C° 0 mm 1 mps 759 mmHg 91%
    03:00 +21°C° 0 mm 2 mps 759 mmHg 92%
    04:00 +21°C° 0 mm 2 mps 759 mmHg 93%
    05:00 +21°C° 0 mm 2 mps 759 mmHg 94%
    06:00 +22°C° 0 mm 1 mps 759 mmHg 95%
    07:00 +25°C° 0 mm 1 mps 760 mmHg 85%
    08:00 +27°C° 0 mm 1 mps 760 mmHg 76%
    09:00 +29°C° 0 mm 1 mps 760 mmHg 66%
    10:00 +31°C° 0 mm 1 mps 760 mmHg 62%
    11:00 +32°C° 0 mm 2 mps 759 mmHg 57%
    12:00 +34°C° 0 mm 2 mps 759 mmHg 53%
    13:00 +34°C° 0 mm 2 mps 758 mmHg 54%
    14:00 +32°C° 0 mm 2 mps 757 mmHg 55%
    15:00 +32°C° 0 mm 2 mps 756 mmHg 55%
    16:00 +30°C° 0 mm 3 mps 756 mmHg 66%
    17:00 +28°C° 0 mm 3 mps 757 mmHg 77%
    18:00 +26°C° 0 mm 3 mps 757 mmHg 88%
    19:00 +25°C° 0 mm 3 mps 757 mmHg 90%
    20:00 +25°C° 0 mm 3 mps 758 mmHg 93%
    21:00 +24°C° 0 mm 3 mps 758 mmHg 95%
    22:00 +24°C° 0.1 mm 2 mps 758 mmHg 96%
    23:00 +24°C° 0.1 mm 2 mps 758 mmHg 96%

    20 December, Thursday

    Time Temperature Precipitation Wind Pressure Humidity
    00:00 +24°C° 0.1 mm 1 mps 758 mmHg 96%
    01:00 +24°C° 0.7 mm 1 mps 758 mmHg 96%
    02:00 +24°C° 0.7 mm 1 mps 757 mmHg 96%
    03:00 +24°C° 0.7 mm 1 mps 757 mmHg 96%
    04:00 +24°C° 0.4 mm 2 mps 758 mmHg 95%
    05:00 +23°C° 0.4 mm 2 mps 758 mmHg 94%
    06:00 +22°C° 0.4 mm 3 mps 759 mmHg 93%
    07:00 +25°C° 0 mm 3 mps 759 mmHg 87%
    08:00 +26°C° 0 mm 3 mps 760 mmHg 81%
    09:00 +28°C° 0 mm 3 mps 761 mmHg 75%
    10:00 +29°C° 0.1 mm 3 mps 760 mmHg 70%
    11:00 +30°C° 0.1 mm 3 mps 760 mmHg 64%
    12:00 +32°C° 0.1 mm 2 mps 759 mmHg 59%
    13:00 +32°C° 0.2 mm 2 mps 759 mmHg 62%
    14:00 +31°C° 0.2 mm 2 mps 758 mmHg 65%
    15:00 +31°C° 0.2 mm 2 mps 758 mmHg 67%
    16:00 +29°C° 0.5 mm 2 mps 758 mmHg 75%
    17:00 +27°C° 0.5 mm 2 mps 759 mmHg 82%
    18:00 +25°C° 0.5 mm 2 mps 760 mmHg 89%
    19:00 +25°C° 0.6 mm 3 mps 760 mmHg 91%
    20:00 +23°C° 0.6 mm 4 mps 761 mmHg 93%
    21:00 +23°C° 0.6 mm 5 mps 762 mmHg 95%
    22:00 +23°C° 0.3 mm 5 mps 762 mmHg 94%
    23:00 +22°C° 0.3 mm 6 mps 762 mmHg 93%

    21 December, Friday

    Time Temperature Precipitation Wind Pressure Humidity
    00:00 +22°C° 0.3 mm 6 mps 762 mmHg 92%
    01:00 +22°C° 0.1 mm 7 mps 762 mmHg 90%
    02:00 +22°C° 0.1 mm 7 mps 762 mmHg 87%
    03:00 +21°C° 0.1 mm 7 mps 762 mmHg 84%
    04:00 +21°C° 0 mm 7 mps 763 mmHg 83%
    05:00 +21°C° 0 mm 7 mps 763 mmHg 81%
    06:00 +20°C° 0 mm 7 mps 764 mmHg 79%
    07:00 +22°C° 0 mm 7 mps 765 mmHg 72%
    08:00 +23°C° 0 mm 6 mps 765 mmHg 65%
    09:00 +24°C° 0 mm 6 mps 766 mmHg 58%
    10:00 +27°C° 0 mm 5 mps 766 mmHg 52%
    11:00 +28°C° 0 mm 5 mps 765 mmHg 47%
    12:00 +30°C° 0 mm 4 mps 765 mmHg 41%
    13:00 +30°C° 0 mm 4 mps 764 mmHg 41%
    14:00 +30°C° 0 mm 3 mps 763 mmHg 40%
    15:00 +30°C° 0 mm 3 mps 763 mmHg 39%
    16:00 +27°C° 0 mm 3 mps 763 mmHg 47%
    17:00 +25°C° 0 mm 3 mps 763 mmHg 55%
    18:00 +22°C° 0 mm 3 mps 764 mmHg 63%
    19:00 +21°C° 0 mm 3 mps 764 mmHg 66%
    20:00 +21°C° 0 mm 3 mps 765 mmHg 69%
    21:00 +20°C° 0 mm 2 mps 765 mmHg 72%
    22:00 +20°C° 0 mm 3 mps 765 mmHg 73%
    23:00 +19°C° 0 mm 3 mps 765 mmHg 75%
    Show more